"Period start","avg(HW err(1)/warn(2) (#))","avg(Visibility (m))","avg(Weather code (#))","avg(Precip intensity (mm/h))","min(HW err(1)/warn(2) (#))","max(HW err(1)/warn(2) (#))","std(HW err(1)/warn(2) (#))","med(HW err(1)/warn(2) (#))","min(Visibility (m))","max(Visibility (m))","std(Visibility (m))","med(Visibility (m))","min(Weather code (#))","max(Weather code (#))","std(Weather code (#))","med(Weather code (#))","min(Precip intensity (mm/h))","max(Precip intensity (mm/h))","std(Precip intensity (mm/h))","med(Precip intensity (mm/h))"
2014-09-03 00:00:00,0,49854,0,0.00,0,0,0,0,48544,50000,437,50000,0,0,0,0,0.00,0.00,0.00,0.00
2014-09-03 00:10:00,0,47411,33,0.14,0,0,0,0,36066,50000,4781,50000,0,61,27,51,0.00,0.75,0.24,0.00
2014-09-03 00:20:00,0,49268,0,0.00,0,0,0,0,45683,50000,1295,50000,0,0,0,0,0.00,0.00,0.00,0.00
2014-09-03 00:30:00,0,48549,0,0.00,0,0,0,0,41108,50000,2705,49960,0,0,0,0,0.00,0.00,0.00,0.00
2014-09-03 00:40:00,0,47178,0,0.00,0,0,0,0,39373,50000,4199,50000,0,0,0,0,0.00,0.00,0.00,0.00
2014-09-03 00:50:00,0,47881,0,0.00,0,0,0,0,40605,50000,2804,48768,0,0,0,0,0.00,0.00,0.00,0.00
2014-09-03 01:00:00,0,43239,0,0.00,0,0,0,0,30132,50000,7442,45670,0,0,0,0,0.00,0.00,0.00,0.00
2014-09-03 01:10:00,0,46331,0,0.00,0,0,0,0,32985,50000,5894,50000,0,0,0,0,0.00,0.00,0.00,0.00
2014-09-03 01:20:00,0,49719,0,0.00,0,0,0,0,48538,50000,562,50000,0,0,0,0,0.00,0.00,0.00,0.00
2014-09-03 01:30:00,0,49735,0,0.00,0,0,0,0,47352,50000,794,50000,0,0,0,0,0.00,0.00,0.00,0.00
2014-09-03 01:40:00,0,50000,0,0.00,0,0,0,0,50000,50000,0,50000,0,0,0,0,0.00,0.00,0.00,0.00
2014-09-03 01:50:00,0,49352,0,0.00,0,0,0,0,44351,50000,1685,50000,0,0,0,0,0.00,0.00,0.00,0.00
2014-09-03 02:00:00,0,48341,0,0.00,0,0,0,0,42538,50000,2634,50000,0,0,0,0,0.00,0.00,0.00,0.00
2014-09-03 02:10:00,0,49614,0,0.00,0,0,0,0,46545,50000,1030,50000,0,0,0,0,0.00,0.00,0.00,0.00
2014-09-03 02:20:00,0,49549,0,0.00,0,0,0,0,46442,50000,1074,50000,0,0,0,0,0.00,0.00,0.00,0.00
2014-09-03 02:30:00,0,49994,0,0.00,0,0,0,0,49942,50000,17,50000,0,0,0,0,0.00,0.00,0.00,0.00
2014-09-03 02:40:00,0,50000,0,0.00,0,0,0,0,50000,50000,0,50000,0,0,0,0,0.00,0.00,0.00,0.00
2014-09-03 02:50:00,0,49930,0,0.00,0,0,0,0,49299,50000,210,50000,0,0,0,0,0.00,0.00,0.00,0.00
2014-09-03 03:00:00,0,48861,0,0.00,0,0,0,0,45212,50000,1771,50000,0,0,0,0,0.00,0.00,0.00,0.00
2014-09-03 03:10:00,0,46328,0,0.00,0,0,0,0,40875,50000,2807,46688,0,0,0,0,0.00,0.00,0.00,0.00
2014-09-03 03:20:00,0,48967,0,0.00,0,0,0,0,43818,50000,1912,50000,0,0,0,0,0.00,0.00,0.00,0.00
2014-09-03 03:30:00,0,50000,0,0.00,0,0,0,0,50000,50000,0,50000,0,0,0,0,0.00,0.00,0.00,0.00
2014-09-03 03:40:00,0,49546,0,0.00,0,0,0,0,46634,50000,1032,50000,0,0,0,0,0.00,0.00,0.00,0.00
2014-09-03 03:50:00,0,47860,0,0.00,0,0,0,0,41861,50000,2927,50000,0,0,0,0,0.00,0.00,0.00,0.00
2014-09-03 04:00:00,0,49839,0,0.00,0,0,0,0,48388,50000,484,50000,0,0,0,0,0.00,0.00,0.00,0.00
2014-09-03 04:10:00,0,49166,0,0.00,0,0,0,0,46101,50000,1285,49843,0,0,0,0,0.00,0.00,0.00,0.00
2014-09-03 04:20:00,0,49948,0,0.00,0,0,0,0,49483,50000,155,50000,0,0,0,0,0.00,0.00,0.00,0.00
2014-09-03 04:30:00,0,48707,0,0.00,0,0,0,0,44351,50000,1921,50000,0,0,0,0,0.00,0.00,0.00,0.00
2014-09-03 04:40:00,0,48888,0,0.00,0,0,0,0,44111,50000,1744,49694,0,0,0,0,0.00,0.00,0.00,0.00
2014-09-03 04:50:00,0,48367,0,0.00,0,0,0,0,41658,50000,3048,50000,0,0,0,0,0.00,0.00,0.00,0.00
2014-09-03 05:00:00,0,48501,0,0.00,0,0,0,0,42912,50000,2533,50000,0,0,0,0,0.00,0.00,0.00,0.00
2014-09-03 05:10:00,0,49408,0,0.00,0,0,0,0,46162,50000,1248,50000,0,0,0,0,0.00,0.00,0.00,0.00
2014-09-03 05:20:00,0,49481,0,0.00,0,0,0,0,46485,50000,1065,50000,0,0,0,0,0.00,0.00,0.00,0.00
2014-09-03 05:30:00,0,49587,0,0.00,0,0,0,0,47324,50000,871,50000,0,0,0,0,0.00,0.00,0.00,0.00
2014-09-03 05:40:00,0,49896,0,0.00,0,0,0,0,48961,50000,312,50000,0,0,0,0,0.00,0.00,0.00,0.00
"Period start","avg(HW err(1)/warn(2) (#))","avg(Visibility (m))","avg(Weather code (#))","avg(Precip intensity (mm/h))","min(HW err(1)/warn(2) (#))","max(HW err(1)/warn(2) (#))","std(HW err(1)/warn(2) (#))","med(HW err(1)/warn(2) (#))","min(Visibility (m))","max(Visibility (m))","std(Visibility (m))","med(Visibility (m))","min(Weather code (#))","max(Weather code (#))","std(Weather code (#))","med(Weather code (#))","min(Precip intensity (mm/h))","max(Precip intensity (mm/h))","std(Precip intensity (mm/h))","med(Precip intensity (mm/h))"
2014-09-03 07:00:00,2,49969,0,0.00,0,2,1,2,49659,50000,98,50000,0,0,0,0,0.00,0.00,0.00,0.00
2014-09-03 07:10:00,0,49689,0,0.00,0,0,0,0,48334,50000,580,50000,0,0,0,0,0.00,0.00,0.00,0.00
2014-09-03 07:20:00,0,49991,0,0.00,0,0,0,0,49909,50000,27,50000,0,0,0,0,0.00,0.00,0.00,0.00
2014-09-03 07:30:00,0,49492,0,0.00,0,0,0,0,47304,50000,1019,50000,0,0,0,0,0.00,0.00,0.00,0.00
2014-09-03 07:40:00,0,49899,0,0.00,0,0,0,0,49326,50000,206,50000,0,0,0,0,0.00,0.00,0.00,0.00
2014-09-03 07:50:00,0,49641,0,0.00,0,0,0,0,48120,50000,719,50000,0,0,0,0,0.00,0.00,0.00,0.00
2014-09-03 08:00:00,0,49907,0,0.00,0,0,0,0,49067,50000,280,50000,0,0,0,0,0.00,0.00,0.00,0.00
2014-09-03 08:10:00,0,50000,0,0.00,0,0,0,0,50000,50000,0,50000,0,0,0,0,0.00,0.00,0.00,0.00
2014-09-03 08:20:00,0,50000,0,0.00,0,0,0,0,50000,50000,0,50000,0,0,0,0,0.00,0.00,0.00,0.00
2014-09-03 08:30:00,0,50000,0,0.00,0,0,0,0,50000,50000,0,50000,0,0,0,0,0.00,0.00,0.00,0.00
2014-09-03 08:40:00,0,50000,0,0.00,0,0,0,0,50000,50000,0,50000,0,0,0,0,0.00,0.00,0.00,0.00
2014-09-03 08:50:00,0,43920,22,0.10,0,0,0,0,36289,50000,4945,44289,0,61,28,0,0.00,0.45,0.15,0.00
2014-09-03 09:00:00,0,45200,59,0.80,0,0,0,0,36789,50000,4324,46352,51,61,4,61,0.15,1.70,0.51,0.65
2014-09-03 09:10:00,0,48469,58,0.30,0,0,0,0,40657,50000,2820,49998,51,61,5,61,0.00,0.65,0.20,0.30
2014-09-03 09:20:00,0,45144,53,1.11,0,0,0,0,33772,50000,4966,46226,51,61,3,52,0.45,2.75,0.68,0.80
2014-09-03 09:30:00,0,44646,61,2.14,0,0,0,0,33858,50000,5419,46526,61,61,0,61,0.25,4.65,1.17,2.30
2014-09-03 09:40:00,0,43301,61,1.34,0,0,0,0,30744,50000,5383,43672,61,61,0,61,0.25,4.05,1.11,0.93
2014-09-03 09:50:00,0,49169,33,0.15,0,0,0,0,45831,50000,1661,50000,0,61,27,51,0.00,0.90,0.27,0.00
2014-09-03 10:00:00,0,45195,0,0.00,0,0,0,0,23401,50000,8916,50000,0,0,0,0,0.00,0.00,0.00,0.00
2014-09-03 10:10:00,0,48022,24,0.27,0,0,0,0,38888,50000,3702,50000,0,61,30,0,0.00,1.00,0.41,0.00
2014-09-03 10:20:00,0,36479,57,1.66,0,0,0,0,22504,48671,9497,40579,51,61,5,61,0.25,6.60,1.93,0.57
2014-09-03 10:30:00,0,46960,61,0.22,0,0,0,0,36911,50000,4414,50000,61,61,0,61,0.00,0.85,0.32,0.03
2014-09-03 10:40:00,0,49850,51,0.29,0,0,0,0,48790,50000,364,50000,51,51,0,51,0.10,0.90,0.22,0.20
2014-09-03 10:50:00,0,45453,52,0.31,0,0,0,0,38050,50000,3805,46447,51,61,3,51,0.05,0.75,0.19,0.28
2014-09-03 11:00:00,0,40445,52,0.93,0,0,0,0,20578,50000,10794,44926,51,61,3,52,0.10,2.80,0.94,0.35
2014-09-03 11:10:00,0,19318,58,3.65,0,0,0,0,16071,22094,1765,19410,52,61,4,61,1.70,7.35,1.67,3.45
2014-09-03 11:20:00,0,14172,61,6.33,0,0,0,0,11191,20247,2884,13048,61,62,0,61,3.70,21.70,5.28,4.10
2014-09-03 11:30:00,0,14064,56,2.44,0,0,0,0,10060,19230,2433,13952,52,61,4,52,0.70,4.60,1.42,2.17
2014-09-03 11:40:00,0,35089,52,0.70,0,0,0,0,19213,50000,12569,36964,51,52,0,52,0.10,1.70,0.51,0.70
2014-09-03 11:50:00,0,17829,52,2.33,0,0,0,0,5988,48150,12769,12714,51,52,0,52,0.45,3.55,1.14,2.62
2014-09-03 12:00:00,0,29048,55,2.65,0,0,0,0,5970,50000,18098,34494,52,61,4,52,0.30,7.35,2.44,1.40
2014-09-03 12:10:00,0,15036,58,2.68,0,0,0,0,5487,32914,8690,13204,52,61,4,61,1.20,5.65,1.50,2.10
2014-09-03 12:20:00,0,29884,52,0.77,0,0,0,0,21659,44263,7837,26846,52,52,0,52,0.50,1.10,0.19,0.78
2014-09-03 12:30:00,0,33211,52,0.89,0,0,0,0,22314,46078,8352,32077,52,52,0,52,0.50,1.95,0.41,0.75
2014-09-03 12:40:00,0,23633,60,2.42,0,0,0,0,18579,29833,3205,23504,52,61,3,61,1.05,4.45,0.99,2.50
2014-09-03 12:50:00,0,17761,56,1.05,0,0,0,0,11649,25833,4599,16473,52,61,4,56,0.40,2.05,0.52,1.00
2014-09-03 13:00:00,0,25164,38,0.29,0,0,0,0,14160,37015,6227,25046,0,52,20,46,0.00,0.80,0.27,0.28
2014-09-03 13:10:00,0,47278,0,0.00,0,0,0,0,39472,50000,4080,50000,0,0,0,0,0.00,0.00,0.00,0.00
2014-09-03 13:20:00,0,50000,0,0.00,0,0,0,0,50000,50000,0,50000,0,0,0,0,0.00,0.00,0.00,0.00
2014-09-03 13:30:00,0,50000,0,0.00,0,0,0,0,50000,50000,0,50000,0,0,0,0,0.00,0.00,0.00,0.00
2014-09-03 13:40:00,0,50000,0,0.00,0,0,0,0,50000,50000,0,50000,0,0,0,0,0.00,0.00,0.00,0.00
2014-09-03 13:50:00,0,50000,0,0.00,0,0,0,0,50000,50000,0,50000,0,0,0,0,0.00,0.00,0.00,0.00
2014-09-03 14:00:00,0,42360,0,0.00,0,0,0,0,9466,50000,13647,50000,0,0,0,0,0.00,0.00,0.00,0.00
2014-09-03 14:10:00,0,26590,0,0.00,0,0,0,0,10521,40151,9764,25200,0,0,0,0,0.00,0.00,0.00,0.00
2014-09-03 14:20:00,0,27186,0,0.00,0,0,0,0,6452,50000,17723,23528,0,0,0,0,0.00,0.00,0.00,0.00
2014-09-03 14:30:00,0,50000,0,0.00,0,0,0,0,50000,50000,0,50000,0,0,0,0,0.00,0.00,0.00,0.00
2014-09-03 14:40:00,0,50000,0,0.00,0,0,0,0,50000,50000,0,50000,0,0,0,0,0.00,0.00,0.00,0.00
2014-09-03 14:50:00,0,50000,0,0.00,0,0,0,0,50000,50000,0,50000,0,0,0,0,0.00,0.00,0.00,0.00
2014-09-03 15:00:00,0,50000,0,0.00,0,0,0,0,50000,50000,0,50000,0,0,0,0,0.00,0.00,0.00,0.00
2014-09-03 15:10:00,0,50000,0,0.00,0,0,0,0,50000,50000,0,50000,0,0,0,0,0.00,0.00,0.00,0.00
2014-09-03 15:20:00,0,50000,0,0.00,0,0,0,0,50000,50000,0,50000,0,0,0,0,0.00,0.00,0.00,0.00
2014-09-03 15:30:00,0,49925,0,0.00,0,0,0,0,49246,50000,226,50000,0,0,0,0,0.00,0.00,0.00,0.00
2014-09-03 15:40:00,0,42683,23,0.26,0,0,0,0,24028,50000,8939,46399,0,61,28,0,0.00,1.30,0.41,0.00
2014-09-03 15:50:00,0,45157,52,0.14,0,0,0,0,38228,50000,3742,46544,51,61,3,51,0.05,0.20,0.05,0.15
2014-09-03 16:00:00,0,49600,30,0.02,0,0,0,0,48247,50000,659,50000,0,61,30,30,0.00,0.10,0.03,0.00
2014-09-03 16:10:00,0,49803,0,0.00,0,0,0,0,48957,50000,395,50000,0,0,0,0,0.00,0.00,0.00,0.00
2014-09-03 16:20:00,0,49883,0,0.00,0,0,0,0,48834,50000,350,50000,0,0,0,0,0.00,0.00,0.00,0.00
2014-09-03 16:30:00,0,48120,6,0.09,0,0,0,0,31515,50000,5536,50000,0,61,18,0,0.00,0.85,0.26,0.00
2014-09-03 16:40:00,0,43408,56,1.60,0,0,0,0,35440,50000,4025,43380,51,61,5,56,0.25,4.15,1.17,1.30
2014-09-03 16:50:00,0,31447,61,3.88,0,0,0,0,20613,46746,9286,27306,61,61,0,61,1.25,7.65,2.00,3.42
2014-09-03 17:00:00,0,37454,61,2.60,0,0,0,0,32005,42898,3977,38057,61,61,0,61,1.20,4.90,1.04,2.42
2014-09-03 17:10:00,0,39661,60,2.44,0,0,0,0,25800,50000,10034,43348,51,61,3,61,0.10,6.70,2.17,2.08
2014-09-03 17:20:00,0,49987,10,0.00,0,0,0,0,49869,50000,39,50000,0,51,20,0,0.00,0.00,0.00,0.00
2014-09-03 17:30:00,0,49430,0,0.00,0,0,0,0,46756,50000,1111,50000,0,0,0,0,0.00,0.00,0.00,0.00
2014-09-03 17:40:00,0,50000,0,0.00,0,0,0,0,50000,50000,0,50000,0,0,0,0,0.00,0.00,0.00,0.00
2014-09-03 17:50:00,0,50000,0,0.00,0,0,0,0,50000,50000,0,50000,0,0,0,0,0.00,0.00,0.00,0.00
2014-09-03 18:00:00,0,50000,0,0.00,0,0,0,0,50000,50000,0,50000,0,0,0,0,0.00,0.00,0.00,0.00
2014-09-03 18:10:00,0,49972,0,0.00,0,0,0,0,49719,50000,84,50000,0,0,0,0,0.00,0.00,0.00,0.00
2014-09-03 18:20:00,0,49508,0,0.00,0,0,0,0,47369,50000,846,50000,0,0,0,0,0.00,0.00,0.00,0.00
2014-09-03 18:30:00,0,50000,0,0.00,0,0,0,0,50000,50000,0,50000,0,0,0,0,0.00,0.00,0.00,0.00
2014-09-03 18:40:00,0,49992,0,0.00,0,0,0,0,49918,50000,25,50000,0,0,0,0,0.00,0.00,0.00,0.00
2014-09-03 18:50:00,0,50000,0,0.00,0,0,0,0,50000,50000,0,50000,0,0,0,0,0.00,0.00,0.00,0.00
2014-09-03 19:00:00,0,49814,0,0.00,0,0,0,0,48143,50000,557,50000,0,0,0,0,0.00,0.00,0.00,0.00
2014-09-03 19:10:00,0,48968,0,0.00,0,0,0,0,44209,50000,1922,49887,0,0,0,0,0.00,0.00,0.00,0.00
2014-09-03 19:20:00,0,49949,0,0.00,0,0,0,0,49493,50000,152,50000,0,0,0,0,0.00,0.00,0.00,0.00
2014-09-03 19:30:00,0,50000,0,0.00,0,0,0,0,50000,50000,0,50000,0,0,0,0,0.00,0.00,0.00,0.00
2014-09-03 19:40:00,0,50000,0,0.00,0,0,0,0,50000,50000,0,50000,0,0,0,0,0.00,0.00,0.00,0.00
2014-09-03 19:50:00,0,50000,0,0.00,0,0,0,0,50000,50000,0,50000,0,0,0,0,0.00,0.00,0.00,0.00
2014-09-03 20:00:00,0,50000,0,0.00,0,0,0,0,50000,50000,0,50000,0,0,0,0,0.00,0.00,0.00,0.00
2014-09-03 20:10:00,0,50000,0,0.00,0,0,0,0,50000,50000,0,50000,0,0,0,0,0.00,0.00,0.00,0.00
2014-09-03 20:20:00,0,50000,0,0.00,0,0,0,0,50000,50000,0,50000,0,0,0,0,0.00,0.00,0.00,0.00
2014-09-03 20:30:00,0,49811,0,0.00,0,0,0,0,48111,50000,567,50000,0,0,0,0,0.00,0.00,0.00,0.00
2014-09-03 20:40:00,0,50000,0,0.00,0,0,0,0,50000,50000,0,50000,0,0,0,0,0.00,0.00,0.00,0.00
2014-09-03 20:50:00,0,49997,0,0.00,0,0,0,0,49972,50000,9,50000,0,0,0,0,0.00,0.00,0.00,0.00
2014-09-03 21:00:00,0,50000,0,0.00,0,0,0,0,50000,50000,0,50000,0,0,0,0,0.00,0.00,0.00,0.00
2014-09-03 21:10:00,0,50000,0,0.00,0,0,0,0,50000,50000,0,50000,0,0,0,0,0.00,0.00,0.00,0.00
2014-09-03 21:20:00,0,50000,0,0.00,0,0,0,0,50000,50000,0,50000,0,0,0,0,0.00,0.00,0.00,0.00
2014-09-03 21:30:00,0,48908,0,0.00,0,0,0,0,43880,50000,1885,50000,0,0,0,0,0.00,0.00,0.00,0.00
2014-09-03 21:40:00,0,49784,0,0.00,0,0,0,0,48052,50000,612,50000,0,0,0,0,0.00,0.00,0.00,0.00
2014-09-03 21:50:00,0,47519,0,0.00,0,0,0,0,40455,50000,3353,50000,0,0,0,0,0.00,0.00,0.00,0.00
2014-09-03 22:00:00,0,49426,0,0.00,0,0,0,0,45426,50000,1374,50000,0,0,0,0,0.00,0.00,0.00,0.00
2014-09-03 22:10:00,0,46863,0,0.00,0,0,0,0,38824,50000,3444,47442,0,0,0,0,0.00,0.00,0.00,0.00
2014-09-03 22:20:00,0,45702,0,0.00,0,0,0,0,35623,50000,4811,47952,0,0,0,0,0.00,0.00,0.00,0.00
2014-09-03 22:30:00,0,47301,0,0.00,0,0,0,0,41198,50000,3032,48401,0,0,0,0,0.00,0.00,0.00,0.00
2014-09-03 22:40:00,0,47945,0,0.00,0,0,0,0,43337,50000,2310,49064,0,0,0,0,0.00,0.00,0.00,0.00
2014-09-03 22:50:00,0,36762,0,0.00,0,2,1,0,19478,50000,11516,37371,0,0,0,0,0.00,0.00,0.00,0.00
2014-09-03 23:00:00,1,27811,18,0.01,0,2,1,2,9350,48294,11285,26064,0,61,28,0,0.00,0.10,0.03,0.00
2014-09-03 23:10:00,2,47564,0,0.00,2,2,0,2,43037,50000,2262,48026,0,0,0,0,0.00,0.00,0.00,0.00
2014-09-03 23:20:00,0,46261,0,0.00,0,2,1,0,39559,50000,3697,46733,0,0,0,0,0.00,0.00,0.00,0.00
2014-09-03 23:30:00,0,45262,0,0.00,0,0,0,0,33816,50000,4885,47130,0,0,0,0,0.00,0.00,0.00,0.00
2014-09-03 23:40:00,2,46693,0,0.00,2,2,0,2,42426,50000,2652,46464,0,0,0,0,0.00,0.00,0.00,0.00
2014-09-03 23:50:00,2,32080,0,0.00,2,2,0,2,22474,44101,6259,31880,0,0,0,0,0.00,0.00,0.00,0.00
